Regional Weather Roundup
Issued by NWS State College, PA

Home | Current Version | Previous Version | Graphics & Text | Print | Product List | Glossary On
Versions: 1 2 3 4 5 6 7 8 9 10 11 12 13 14 15 16 17 18 19 20 21 22 23 24 25 26 27 28 29 30 31 32 33 34 35 36 37 38 39 40 41 42 43 44 45 46 47 48 49 50
000
ASUS41 KCTP 181503
RWRCTP

REGIONAL WEATHER ROUNDUP
NATIONAL WEATHER SERVICE STATE COLLEGE PA
1100 AM EDT WED OCT 18 2017

Note: "fair" indicates few or no clouds below 12,000 feet with no
significant weather and/or obstructions to visibility.

* = STATION THAT DOES NOT REPORT PRECIPITATION /E.G. RAIN...SNOW...ETC/
    THUNDER OR FOG.

PAZ002>004-007>009-013>016-020>023-029>032-181600-
WESTERN PENNSYLVANIA

CITY           SKY/WX    TMP DP  RH WIND       PRES   REMARKS
ERIE           SUNNY     62  43  49 S9        30.30F
MEADVILLE      SUNNY     56  43  61 S7        30.33S
FRANKLIN*      SUNNY     57  42  57 SW7       30.35S
NEW CASTLE     FAIR      58  44  60 CALM      30.35F
BEAVER COUNTY  SUNNY     57  45  62 CALM      30.35F
BUTLER*        SUNNY    N/A N/A N/A CALM      30.36F
PITTSBURGH INT MOSUNNY   57  42  57 VRB3      30.36S
PITTSBURGH     SUNNY     57  40  52 SE5       30.35F
INDIANA*       SUNNY     59  43  55 VRB6      30.39F
LATROBE        NOT AVBL
WASHINGTON CO* SUNNY     58  41  53 CALM      30.38F
$$

PAZ004>006-010>012-017>019-024>028-033>037-041-042-045-046-049>053-181600-
CENTRAL PENNSYLVANIA

CITY           SKY/WX    TMP DP  RH WIND       PRES   REMARKS
BRADFORD       SUNNY     57  41  55 VRB7      30.34S
DUBOIS         SUNNY     57  40  52 VRB6      30.35F
CLEARFIELD     SUNNY     53  42  66 S6        30.36F
JOHNSTOWN      SUNNY     56  40  55 CALM      30.37S
ALTOONA        SUNNY     59  40  49 SW3       30.37F
STATE COLLEGE  SUNNY     57  43  58 S6        30.37S
WILLIAMSPORT   SUNNY     52  45  77 CALM      30.35F
SELINSGROVE    SUNNY     54  46  74 E5        30.37F
FT INDIANTOWN  SUNNY     56  45  67 CALM      30.37S
CAPITAL CITY   SUNNY     58  42  55 SW5       30.37F
HARRISBURG     SUNNY     57  43  59 NW5       30.37S
YORK           SUNNY     58  47  66 CALM      30.37F
$$

PAZ038>040-043-044-047-048-054-055-060>062-067>071-181600-
EASTERN PENNSYLVANIA

CITY           SKY/WX    TMP DP  RH WIND       PRES   REMARKS
SCRANTON       SUNNY     57  42  57 W7        30.35F
MOUNT POCONO   SUNNY     58  44  60 W7        30.34R
ALLENTOWN      SUNNY     60  43  53 W7        30.35S
QUAKERTOWN*    SUNNY     61  43  51 W6        30.36S
READING        SUNNY     61  45  55 NW5       30.36S
LANCASTER      SUNNY     57  45  64 W6        30.37S
COATESVILLE    SUNNY     61  43  51 W7        30.38S
POTTSTOWN      SUNNY     59  42  53 VRB5      30.37S
BLUE BELL      SUNNY     61  41  48 W5        30.37S
DOYLESTOWN     SUNNY     62  43  49 VRB7      30.34S
WILLOW GROVE   NOT AVBL
NORTH PHILA    SUNNY     64  43  46 W7        30.37S
PHILADELPHIA   SUNNY     61  42  49 SW7       30.36F
$$




USA.gov is the U.S. government's official web portal to all federal, state and local government web resources and services.